GO-32
1 25397U 98043D 20289.41283206 -.00000013 00000-0 13646-4 0 9996
2 25397 098.7383 230.0470 0002370 079.0606 281.0839 14.23692234156629
ISS
1 25544U 98067A 20289.85770609 .00000449 00000-0 16149-4 0 9995
2 25544 51.6430 111.3891 0001431 33.8136 59.8337 15.49304987250729
NO-44
1 26931U 01043C 20289.13880663 -.00000038 00000-0 17382-4 0 9992
2 26931 067.0515 193.5302 0006703 276.2548 083.7790 14.30590402994194
SO-50
1 27607U 02058C 20289.59234099 -.00000002 00000-0 20087-4 0 9993
2 27607 64.5572 7.0519 0034039 135.1420 225.2444 14.75667521958582
CO-55
1 27844U 03031E 20289.52113777 .00000058 00000-0 45885-4 0 9993
2 27844 098.6835 295.4500 0010923 070.3075 289.9281 14.22261214897163
CO-57
1 27848U 03031J 20289.51240402 .00000042 00000-0 38946-4 0 9995
2 27848 098.6900 296.0069 0010860 081.7724 278.4684 14.21845160897004
RS-22
1 27939U 03042A 20289.71365667 .00000154 00000-0 36299-4 0 9994
2 27939 98.1073 63.0551 0012392 339.0737 20.9965 14.66894710911647
NOAA-18
1 28654U 05018A 20289.58094415 .00000092 00000-0 74328-4 0 9995
2 28654 99.0305 347.0549 0013375 251.0828 108.8893 14.12546786793965
CO-58
1 28895U 05043F 20289.31158314 .00000119 00000-0 31672-4 0 9995
2 28895 098.0271 062.4286 0015491 262.1259 097.8186 14.63809019798145
Falconsat-3
1 30776U 07006E 20289.24806606 .00003053 00000-0 80043-4 0 9999
2 30776 035.4341 233.2920 0003209 214.6137 145.4381 15.38368500755297
CO-65
1 32785U 08021C 20289.45976343 .00000220 00000-0 29240-4 0 9993
2 32785 097.5847 272.2688 0014565 094.8378 265.4503 14.88529899675727
AAUSAT2
1 32788U 08021F 20289.51784927 .00000097 00000-0 13773-4 0 9994
2 32788 097.4956 288.7090 0012212 019.8049 340.3644 14.95179072677259
DO-64
1 32789U 08021G 20289.11636191 .00001382 00000-0 93708-4 0 9994
2 32789 097.4073 327.6795 0010381 263.9226 096.0820 15.08001863679844
CO-66
1 32791U 08021J 20289.52092312 .00000450 00000-0 50661-4 0 9999
2 32791 97.5502 278.4266 0014703 65.2093 295.0653 14.91131751676357
RS-30
1 32953U 08025A 20289.63919642 .00000037 00000-0 19437-3 0 9995
2 32953 82.5067 203.1648 0019047 148.3253 211.8979 12.43098670562564
PRISM
1 33493U 09002B 20289.55982431 .00000103 00000-0 14452-4 0 9995
2 33493 98.1549 234.8981 0015901 22.2883 337.9025 14.97176639637688
NOAA-19
1 33591U 09005A 20289.59354285 .00000025 00000-0 39126-4 0 9999
2 33591 99.1968 298.0738 0014954 98.7266 261.5599 14.12434900602354
TISAT-1
1 36799U 10035E 20289.46434120 .00000214 00000-0 27575-4 0 9995
2 36799 98.2026 104.4274 0011092 300.0790 59.9327 14.91446545557013
JUGNU
1 37839U 11058B 20289.37698399 .00000316 00000-0 26731-4 0 9993
2 37839 019.9614 275.4979 0018674 270.4240 235.7351 14.12691324465767
SRMSAT
1 37841U 11058D 20289.46259437 .00000349 00000-0 46891-4 0 9997
2 37841 019.9731 341.7884 0011964 121.4091 266.6646 14.10676042465113
AO-71
1 37854U 11061E 20289.37084030 .00000984 00000-0 56615-4 0 9990
2 37854 101.7132 082.5849 0157438 065.1034 296.6451 15.07608443489548
HRBE
1 37855U 11061F 20289.46076461 .00000920 00000-0 52638-4 0 9991
2 37855 101.7258 079.8168 0169976 078.6833 283.3424 15.06640123489270
HORYU-2
1 38340U 12025D 20289.41422764 .00000150 00000-0 29676-4 0 9999
2 38340 098.2675 345.7760 0011819 024.6990 335.4782 14.75900956442243
RS-40
1 38735U 12041C 20289.74237332 .00000003 00000-0 -47065-4 0 9996
2 38735 82.4724 285.6529 0015757 259.6336 100.2971 12.42580549372799
BEESAT-3
1 39135U 13015F 20289.38547958 .00000777 00000-0 47064-4 0 9997
2 39135 064.8657 274.0193 0028284 223.9774 135.9102 15.18423504413814
BEESAT-2
1 39136U 13015G 20289.41532008 .00001198 00000-0 68008-4 0 9991
2 39136 064.8739 279.3317 0035304 266.9680 092.7406 15.17820076413323
ZACUBE-1
1 39417U 13066B 20289.46812422 .00000185 00000-0 29651-4 0 9991
2 39417 097.5731 280.8605 0057380 243.7742 115.7566 14.81333599372806
TRITON-1
1 39427U 13066M 20289.43948118 .00000290 00000-0 53782-4 0 9990
2 39427 97.7405 243.7901 0114866 54.7204 306.4682 14.68060457369461
GOMX-1
1 39430U 13066Q 20289.71899591 .00000115 00000-0 29637-4 0 9993
2 39430 97.7961 221.0170 0150879 165.1947 195.3751 14.59446875367343
LO-74
1 39440U 13066AA 20289.54609875 .00000237 00000-0 40019-4 0 9991
2 39440 097.6446 265.4913 0078985 311.1185 048.3225 14.76070211370299
AO-73
1 39444U 13066AE 20289.53141783 .00000223 00000-0 33662-4 0 9994
2 39444 97.5662 283.2122 0056590 234.9688 124.6208 14.82198968371747
SPROUT
1 39770U 14029E 20289.73282335 .00000598 00000-0 71377-4 0 9997
2 39770 97.9034 35.5550 0008083 297.1869 62.8525 14.87906050346948
DUCHIFAT-1
1 40021U 14033M 20289.54504891 .00000363 00000-0 42595-4 0 9996
2 40021 097.9474 221.5450 0011388 250.4071 109.5917 14.91001976343783
NANOSATCBR1
1 40024U 14033Q 20289.50109792 .00000339 00000-0 40940-4 0 9991
2 40024 97.9301 217.4800 0010739 255.9318 104.0706 14.90156989343635
DTUSAT-2
1 40030U 14033W 20289.52573793 .00000251 00000-0 32860-4 0 9991
2 40030 097.9024 211.0179 0010412 260.1956 099.8085 14.88777588342874
EO-80
1 40032U 14033Y 20289.48144027 .00000261 00000-0 33986-4 0 9993
2 40032 097.9029 210.9769 0010371 261.1634 098.8409 14.88728880342849
ANTELSAT
1 40034U 14033AA 20289.53296155 .00000200 00000-0 36929-4 0 9994
2 40034 097.6997 139.3901 0058050 332.0011 027.8078 14.74310995339576
VELOX-1
1 40057U 14034E 20289.87832342 .00000261 00000-0 43867-4 0 9997
2 40057 98.2973 70.2682 0012012 117.1387 243.1048 14.77945469339424
DAURIA DX 1
1 40071U 14037C 20289.81456916 .00000090 00000-0 19059-4 0 9995
2 40071 98.4628 114.9097 0009565 108.4121 251.8133 14.81399074339075
HODOYOSHI-1
1 40299U 14070B 20289.54100979 .00000520 00000-0 24154-4 0 9999
2 40299 097.3144 003.4411 0014198 127.5989 345.9550 15.24208667330100
CHUBUSAT-1
1 40300U 14070C 20289.75563149 .00000610 00000-0 29011-4 0 9994
2 40300 97.2758 355.2525 0020210 146.0862 3.1583 15.22662313329810
QSAT-EOS
1 40301U 14070D 20289.76388826 .00001772 00000-0 68320-4 0 9999
2 40301 97.2836 1.4205 0026322 119.7686 355.7700 15.27320992330294
FIREBIRD FU3
1 40377U 15003B 20289.44605323 .00001705 00000-0 68480-4 0 9991
2 40377 099.0865 014.1693 0121520 273.2103 085.5230 15.20500430315533
FIREBIRD FU4
1 40378U 15003C 20289.23148777 .00001684 00000-0 67615-4 0 9999
2 40378 99.0868 14.0183 0121677 273.7840 84.9485 15.20519682315518
GRIFEX
1 40379U 15003D 20289.42959404 .00001004 00000-0 45938-4 0 9998
2 40379 99.0911 5.4539 0130995 300.7039 58.1336 15.16730372315032
NO-84
1 40654U 15025D 20288.13657307 .00017943 00000-0 18932-3 0 579
2 40654 54.9828 112.5648 0111707 135.9933 225.0049 15.56903804187496
DEORBITSAIL
1 40719U 15032E 20289.40783213 .00000350 00000-0 56553-4 0 9997
2 40719 097.8530 174.9956 0016048 175.5120 184.6237 14.77090438283801
NUDT-PHONESAT
1 40900U 15049B 20289.72151417 .00001913 00000-0 80473-4 0 9991
2 40900 97.4311 299.6620 0010820 283.8242 196.8876 15.24580324281510
XW-2A
1 40903U 15049E 20289.72689995 .00001908 00000-0 44339-4 0 9996
2 40903 97.2752 338.7027 0012761 178.0365 329.8907 15.43544793285027
XW-2C
1 40906U 15049H 20289.76578882 .00000346 00000-0 21360-4 0 9999
2 40906 97.4819 289.3779 0013837 322.7014 155.5803 15.16213478280482
XW-2D
1 40907U 15049J 20289.78278935 .00000766 00000-0 42742-4 0 9991
2 40907 97.4800 289.1220 0013280 320.2143 29.3955 15.16467274280504
